This is the latest recevied weather packets stored in our database for station/object KD4MBW. If no packets are shown the sender has not sent any weather packets the latest 10 day(s).
| Time | Temp. | Humidity | Pressure | Rain* | Wind** | Luminosity | Snow |
|---|---|---|---|---|---|---|---|
| 1777913127 | 25° C | 36% | 1018.1 hPa | 0 mm | - | 787 W/m² | - |
| 1777912824 | 24.44° C | 36% | 1018.2 hPa | 0 mm | - | 787 W/m² | - |
| 1777912520 | 23.89° C | 37% | 1018.5 hPa | 0 mm | - | 787 W/m² | - |
| 1777912216 | 24.44° C | 36% | 1018.6 hPa | 0 mm | - | 786 W/m² | - |
| 1777911913 | 23.89° C | 39% | 1018.6 hPa | 0 mm | - | 778 W/m² | - |
| 1777911609 | 23.89° C | 37% | 1018.5 hPa | 0 mm | - | 773 W/m² | - |
| 1777911304 | 23.89° C | 37% | 1018.7 hPa | 0 mm | - | 764 W/m² | - |
| 1777911003 | 23.89° C | 40% | 1018.8 hPa | 0 mm | - | 760 W/m² | - |
| 1777910701 | 23.89° C | 37% | 1018.8 hPa | 0 mm | - | 753 W/m² | - |
| 1777910396 | 24.44° C | 37% | 1018.8 hPa | 0 mm | - | 745 W/m² | - |
| 1777910093 | 23.89° C | 38% | 1018.9 hPa | 0 mm | - | 737 W/m² | - |
| 1777909791 | 23.89° C | 37% | 1018.9 hPa | 0 mm | - | 730 W/m² | - |
| 1777909487 | 23.89° C | 40% | 1018.8 hPa | 0 mm | - | 720 W/m² | - |
| 1777909185 | 23.33° C | 39% | 1018.7 hPa | 0 mm | - | 711 W/m² | - |
| 1777908883 | 23.33° C | 38% | 1018.8 hPa | 0 mm | - | 703 W/m² | - |
| 1777908580 | 23.89° C | 39% | 1018.9 hPa | 0 mm | - | 692 W/m² | - |
| 1777908277 | 23.33° C | 37% | 1019 hPa | 0 mm | - | 684 W/m² | - |
| 1777907973 | 23.33° C | 39% | 1019 hPa | 0 mm | - | 674 W/m² | - |
| 1777907668 | 22.78° C | 38% | 1018.8 hPa | 0 mm | - | 663 W/m² | - |
| 1777907364 | 22.78° C | 40% | 1018.8 hPa | 0 mm | - | 649 W/m² | - |
| 1777907061 | 23.33° C | 40% | 1018.8 hPa | 0 mm | - | 639 W/m² | - |
| 1777906758 | 23.89° C | 41% | 1018.7 hPa | 0 mm | - | 629 W/m² | - |
| 1777906455 | 22.78° C | 40% | 1018.8 hPa | 0 mm | - | 616 W/m² | - |
| 1777906152 | 23.33° C | 41% | 1019 hPa | 0 mm | - | 605 W/m² | - |
| 1777905848 | 22.78° C | 40% | 1018.9 hPa | 0 mm | - | 591 W/m² | - |
* Rain latest hour (hover to see other rain measurements)
** Current wind speed in m/s (hover to see current wind gust speed)